Flag for Canada Weather past 2 weeks in Quesnel, British Columbia, Canada

3 °F

Light snow. Low clouds.

Feels Like: 3 °F
Forecast: 3 / 23 °F
Wind: 2 mph from Southwest

Location: Quesnel Airport

Current Time: Nov 26, 2015 at 9:59:24 AM

Latest Report: Nov 26, 2015 at 9:04 AM

Visibility: 6 mi

Pressure: 30.79 "Hg

Humidity: 92%

Dew point: 1 °F

Location of QuesnelLocation

Historic Weather in Quesnel — Graph


Quesnel temperature yesterday

Maximum temperature yesterday: 16 °F (at 3:00 PM)
Minimum temperature yesterday: 3 °F (at 1:00 AM)
Average temperature yesterday: 7 °F

Past Weeks' High & Low Weather Summary

High48 °F (Nov 13, 3:00 PM)100% (Nov 11, 8:00 AM)30.79 "Hg (Nov 11, 8:00 AM)
Low1 °F (Nov 26, 5:00 AM)29% (Nov 11, 2:00 PM)29.30 "Hg (Nov 17, 12:00 PM)
Average26 °F81%30.07 "Hg
* Reported Nov 11 8:00 AM — Nov 26 8:51 AM, Quesnel, Weather by CustomWeather, © 2015

Note: Actual official high and low records may vary slightly from our data, if they occured in-between our weather recording intervals... More about our weather records


Quesnel weather history for previous 24 hours

Time TempWeatherWind HumidityBarometerVisibility
8:51 AM
Thu, Nov 26
5 °FLight snow. Low clouds.2 mph85%30.79 "Hg5 mi
8:00 AM3 °FLight snow. Low clouds.3 mph92%30.78 "Hg8 mi
7:58 AM3 °FLight snow. Low clouds.3 mph92%30.78 "Hg7 mi
7:00 AM3 °FLight snow. Low clouds.No wind92%30.79 "Hg6 mi
6:00 AM3 °FLight snow. Low clouds.No wind92%30.78 "Hg5 mi
5:00 AM1 °FPassing clouds.No wind92%30.77 "Hg9 mi
4:00 AM3 °FClear.No wind85%30.75 "Hg9 mi
3:00 AM3 °FLight snow. Passing clouds.No wind92%30.73 "Hg8 mi
2:00 AM5 °FLight snow. Low clouds.2 mph85%30.73 "Hg8 mi
1:00 AM5 °FLight snow. Low clouds.No wind92%30.72 "Hg9 mi
12:00 AM3 °FPassing clouds.No wind92%30.73 "Hg9 mi
11:00 PM
Wed, Nov 25
3 °FPassing clouds.No wind92%30.72 "Hg9 mi
10:00 PM3 °FPassing clouds.2 mph92%30.72 "Hg9 mi
9:00 PM5 °FPassing clouds.No wind92%30.71 "Hg9 mi
8:00 PM5 °FPassing clouds.No wind92%30.69 "Hg8 mi
7:00 PM7 °FClear.No wind92%30.68 "Hg9 mi
6:00 PM7 °FClear.No wind92%30.67 "Hg9 mi
5:00 PM9 °FClear.No wind92%30.65 "Hg9 mi
4:00 PM12 °FSunny.No wind79%30.64 "Hg9 mi
3:00 PM16 °FSunny.2 mph73%30.64 "Hg9 mi
2:00 PM14 °FSunny.No wind73%30.65 "Hg9 mi
1:00 PM12 °FSunny.2 mph79%30.66 "Hg6 mi
12:00 PM10 °FLight snow. Partly sunny.No wind85%30.67 "Hg4 mi
11:53 AM10 °FLight snow. Partly sunny.2 mph85%30.67 "Hg4 mi
11:00 AM7 °FLight snow. Partly sunny.No wind85%30.71 "Hg4 mi
10:52 AM7 °FLight snow. Partly sunny.No wind85%30.71 "Hg5 mi
10:00 AM7 °FLight snow. Low clouds.2 mph85%30.71 "Hg9 mi
9:00 AM5 °FLight snow. Low clouds.No wind85%30.70 "Hg9 mi
Weather by CustomWeather, © 2015

See weather overviewHow to use our weather pages